User: anonymous   Login
Location: State Camp
(41.2367°N, 77.7828°W)
Time: 22:30:52
(UTC-05:00)
Language:

Lacrosse 5 - Orbit

View from above orbital plane
View from above orbital plane
View from above satellite
View from above satellite

Ground track
Ground track

The orbit data is extracted from the following two-line orbital elements,

1 28646U 05016A   18046.74054104 0.00000000  00000-0  00000-0 0    05
2 28646  57.0110 297.6122 0007000 153.4313 206.5687 14.51909232    08
Epoch (UTC): 15 February 2018 17:46:22
Eccentricity: 0.0007000
inclination: 57.0110°
perigee height: 714 km
apogee height: 724 km
right ascension of ascending node: 297.6122°
argument of perigee: 153.4313°
revolutions per day: 14.51909232
mean anomaly at epoch: 206.5687°
orbit number at epoch: 0

The dashed part of the orbit path shows where the satellite is in the earth's shadow,  

DLR